WetterOnline ( https://www.wetteronline.de )

Wetter aktuell Cheb

Aktuelles Wetter: Cheb (490m)

6-stündlich | Neueste Meldungen
Ortszeit Temperatur Wetter
Sa, 28.01. 19:00 -4.4° C bedeckt
Sa, 28.01. 13:00 -2.1° C bedeckt
Sa, 28.01. 7:00 -1.0° C bedeckt
Sa, 28.01. 1:00 -1.1° C bedeckt
Fr, 27.01. 19:00 -1.4° C bedeckt
Fr, 27.01. 13:00 -1.5° C bewölkt
Fr, 27.01. 7:00 -3.3° C bedeckt
Fr, 27.01. 1:00 -3.0° C bedeckt
Ortszeit Temperatur Wetter
So, 29.01. 0:00 -5.6° C bedeckt
Sa, 28.01. 23:00 -5.4° C bedeckt
Sa, 28.01. 22:00 -5.3° C bedeckt
Sa, 28.01. 21:00 -4.8° C bedeckt
Sa, 28.01. 20:00 -4.5° C bedeckt
Sa, 28.01. 19:00 -4.4° C bedeckt
Ortszeit Relative Feuchte Sichtweite
Sa, 28.01. 19:00 76% 30 km
Sa, 28.01. 13:00 78% 30 km
Sa, 28.01. 7:00 84% 30 km
Sa, 28.01. 1:00 85% 30 km
Fr, 27.01. 19:00 83% 35 km
Fr, 27.01. 13:00 78% 20 km
Fr, 27.01. 7:00 86% 20 km
Fr, 27.01. 1:00 92% 11 km
Ortszeit Relative Feuchte Sichtweite
So, 29.01. 0:00 78% 35 km
Sa, 28.01. 23:00 77% 35 km
Sa, 28.01. 22:00 77% 35 km
Sa, 28.01. 21:00 77% 25 km
Sa, 28.01. 20:00 76% 25 km
Sa, 28.01. 19:00 76% 30 km
Ortszeit Niederschlagsmenge Niederschlagsart
Sa, 28.01. 19:00 0.0 l/m2 in 12 Std. -
Sa, 28.01. 13:00 0.0 l/m2 in 6 Std. -
Sa, 28.01. 7:00 0.1 l/m2 in 12 Std. -
Sa, 28.01. 1:00 0.1 l/m2 in 6 Std. Schneeschauer
Fr, 27.01. 19:00 0.1 l/m2 in 12 Std. -
Fr, 27.01. 13:00 0.0 l/m2 in 6 Std. -
Fr, 27.01. 7:00 0.1 l/m2 in 12 Std. -
Fr, 27.01. 1:00 0.0 l/m2 in 6 Std. -
Ortszeit Niederschlagsmenge Niederschlagsart
So, 29.01. 0:00 0.0 l/m2 in 1 Std. -
Sa, 28.01. 23:00 0.0 l/m2 in 1 Std. -
Sa, 28.01. 22:00 0.0 l/m2 in 1 Std. -
Sa, 28.01. 21:00 0.0 l/m2 in 1 Std. -
Sa, 28.01. 20:00 0.0 l/m2 in 1 Std. -
Sa, 28.01. 19:00 0.0 l/m2 in 1 Std. -
Ortszeit Stärke Spitze Richtung
km/h Bft. km/h Grad Sektor
Sa, 28.01. 19:00 4 1 - 300° NW
Sa, 28.01. 13:00 14 3 - 340° N
Sa, 28.01. 7:00 11 2 - 350° N
Sa, 28.01. 1:00 4 1 - 10° N
Fr, 27.01. 19:00 11 2 - 350° N
Fr, 27.01. 13:00 11 2 - 340° N
Fr, 27.01. 7:00 7 2 - 330° NW
Fr, 27.01. 1:00 4 1 - uml. uml.
Ortszeit Stärke Spitze Richtung
km/h Bft. km/h Grad Sektor
So, 29.01. 0:00 4 1 - uml. uml.
Sa, 28.01. 23:00 7 2 - uml. uml.
Sa, 28.01. 22:00 7 2 - 270° W
Sa, 28.01. 21:00 11 2 - 300° NW
Sa, 28.01. 20:00 4 1 - uml. uml.
Sa, 28.01. 19:00 4 1 - 300° NW
Ortszeit Untergrenze Bedeckung Gattung
total tief tief mittel hoch
Sa, 28.01. 19:00 510 m 8/8 8/8 Sc - -
Sa, 28.01. 13:00 480 m 8/8 8/8 Sc - -
Sa, 28.01. 7:00 450 m 8/8 8/8 Sc - -
Sa, 28.01. 1:00 480 m - 8/8 - - -
Fr, 27.01. 19:00 510 m 8/8 8/8 Sc - -
Fr, 27.01. 13:00 600 m 7/8 5/8 Sc As -
Fr, 27.01. 7:00 510 m 8/8 8/8 Sc - -
Fr, 27.01. 1:00 180 m - 8/8 - - -
Ortszeit Bedeckungsgrad in Achtel und Wolkenuntergrenze
So, 29.01. 0:00 8(450m)
Sa, 28.01. 23:00 8(480m)
Sa, 28.01. 22:00 8(480m)
Sa, 28.01. 21:00 8(480m)
Sa, 28.01. 20:00 8(510m)
Sa, 28.01. 19:00 8(510m)
Ortszeit Luftdruck NN (hPa) Tendenz (hPa in 3 Std.)
Sa, 28.01. 19:00 1030 + 0,6
Sa, 28.01. 13:00 1028 + 0,6
Sa, 28.01. 7:00 1026 + 0,6
Sa, 28.01. 1:00 1025 + 0,2
Fr, 27.01. 19:00 1024 + 1,0
Fr, 27.01. 13:00 1023 0,0
Fr, 27.01. 7:00 1022 + 0,7
Fr, 27.01. 1:00 1021 - 0,4
Ortszeit Luftdruck NN (hPa) Tendenz (hPa in 3 Std.)
So, 29.01. 0:00 1032 0,0
Sa, 28.01. 23:00 1032 + 0,6
Sa, 28.01. 22:00 1032 + 1,3
Sa, 28.01. 21:00 1032 + 1,4
Sa, 28.01. 20:00 1031 + 0,8
Sa, 28.01. 19:00 1030 + 0,6
Ortszeit Schneehöhe (cm)
Sa, 28.01. 19:00 -
Sa, 28.01. 13:00 -
Sa, 28.01. 7:00 -
Sa, 28.01. 1:00 -
Fr, 27.01. 19:00 -
Fr, 27.01. 13:00 -
Fr, 27.01. 7:00 -
Fr, 27.01. 1:00 -
Ortszeit Schneehöhe (cm)
So, 29.01. 0:00 -
Sa, 28.01. 23:00 -
Sa, 28.01. 22:00 -
Sa, 28.01. 21:00 -
Sa, 28.01. 20:00 -
Sa, 28.01. 19:00 -
Link zu dieser Seite / Seite empfehlen

Das Wetter in ...